Location: Chatham
(39.6760°N, 89.7040°W)
Time: 17:46:35
(UTC-06:00)

Envisat - Visible Passes

Search period start: 22 January 2018 00:00
Search period end: 01 February 2018 00:00
Orbit: 764 x 766 km, 98.2° (Epoch: 22 January)

Date Brightness Start Highest point End Pass type
(mag) Time Alt. Az. Time Alt. Az. Time Alt. Az.
22 Jan 4.7 18:13:56 13° NE 18:13:56 13° NE 18:15:19 10° NNE visible
22 Jan 4.8 19:54:07 23° NNW 19:54:07 23° NNW 19:56:03 10° NNW visible
23 Jan 4.2 19:16:42 29° N 19:16:42 29° N 19:19:16 10° N visible
24 Jan 4.3 18:39:16 22° NE 18:39:16 22° NE 18:41:55 10° NNE visible
24 Jan 5.1 20:19:28 21° NW 20:19:28 21° NW 20:21:20 10° NNW visible
25 Jan 4.8 18:01:50 12° ENE 18:01:50 12° ENE 18:03:20 10° NE visible
25 Jan 4.1 19:42:01 35° NNW 19:42:01 35° NNW 19:44:57 10° NNW visible
26 Jan 3.7 19:04:35 35° NNE 19:04:35 35° NNE 19:08:01 10° N visible
26 Jan 5.6 20:44:46 16° WNW 20:44:46 16° WNW 20:46:13 10° NW visible
27 Jan 4.2 18:27:07 20° ENE 18:27:07 20° ENE 18:30:28 10° NNE visible
27 Jan 4.4 20:07:18 33° NW 20:07:18 33° NW 20:10:22 10° NNW visible
28 Jan 3.3 19:29:51 54° N 19:29:51 54° N 19:33:48 10° N visible
29 Jan 3.6 18:52:23 34° ENE 18:52:23 34° ENE 18:56:43 10° N visible
29 Jan 5.1 20:32:33 24° WNW 20:32:33 24° WNW 20:35:28 10° NW visible
30 Jan 4.4 18:14:54 16° ENE 18:15:49 16° ENE 18:18:52 10° NNE visible
30 Jan 3.6 19:55:05 54° WNW 19:55:05 54° WNW 19:59:21 10° NNW visible
31 Jan 2.9 19:17:35 60° ENE 19:17:37 60° ENE 19:22:37 10° N visible
31 Jan 5.7 20:57:46 15° W 20:57:46 15° W 20:59:52 10° WNW visible
